Regional Weather Roundup
Issued by NWS Sterling, VA

Home | Current Version | Previous Version | Graphics & Text | Print | Product List | Glossary On
Versions: 1 2 3 4 5 6 7 8 9 10 11 12 13 14 15 16 17 18 19 20 21 22 23 24 25 26 27 28
000
ASUS41 KLWX 091310
RWRLWX

REGIONAL WEATHER ROUNDUP
NATIONAL WEATHER SERVICE BALTIMORE MD/WASHINGTON DC
800 AM EST FRI DEC 09 2016

Note: "FAIR" indicates few or no clouds below 12,000 feet
with no significant weather and/or obstructions to visibility.
 TC=TEMPERATURE CELSIUS

 * =Non NWS site. Station does not report precipitation (e.g. rain,
    snow, etc.), thunder, or fog.

DCZ001-MDZ009-015-VAZ040>042-051-053>054-091400-
WASHINGTON METRO

CITY           SKY/WX    TMP DP  RH WIND       PRES   REMARKS
WASHINGTON NAT CLEAR     31  14  49 W14       30.30R WCI  21
DULLES         CLEAR     29  13  51 NW17G28   30.28S WCI  17
ANDREWS AFB    CLEAR     29  13  50 W13G20    30.27R WCI  19
FT BELVOIR     CLEAR     31  12  46 W10       30.30R WCI  22
QUANTICO       CLEAR     30  15  53 NW9       30.33R WCI  22
COLLEGE PARK*  CLEAR     30  14  51 W7        30.28S
LEESBURG*      CLEAR     30  19  64 NW21      30.29R WCI  17
MANASSAS*      CLEAR    N/A N/A N/A W6        30.32R
GAITHERSBURG*  CLEAR     27  10  50 NW12      30.30R WCI  16

$$

MDZ006>007-011-014-091400-
BALTIMORE METRO

CITY           SKY/WX    TMP DP  RH WIND       PRES   REMARKS
BWI AIRPORT    PTCLDY    29  15  56 W17       30.26R WCI  17
MD SCIENCE CTR   N/A     30  13  49 MISG      30.26R
MARTIN STATE   CLEAR     30  18  59 W13G21    30.25  WCI  20
ANNAPOLIS      CLEAR     32  16  51 W10G18    30.27R WCI  24
FORT MEADE*    CLEAR     28  16  59 W10G16    30.29R WCI  19

$$

MDZ012-015-019>023-091400-
MARYLAND EASTERN SHORE

CITY           SKY/WX    TMP DP  RH WIND       PRES   REMARKS
OCEAN CITY     CLEAR     30  16  56 NW7       30.25R
SALISBURY      CLEAR     30  16  56 NW12      30.26R WCI  20
BAY BRIDGE AP* CLEAR     30  18  59 MISG      30.26S
CAMBRIDGE*     CLEAR     32  16  51 NW17G25   30.27R WCI  21
EASTON*        CLEAR     30  18  59 NW12G21   30.30R WCI  21

$$

MDZ017>025-091400-
SOUTHERN MARYLAND

CITY           SKY/WX    TMP DP  RH WIND       PRES   REMARKS
PATUXENT RIVER PTCLDY    30  15  53 W9        30.29R WCI  22
ST INIGOES     CLEAR     31  15  52 NW7       30.29R
LEONARDTOWN*   CLEAR     30  14  51 W9G16     30.29S WCI  22

$$

MDZ003>005-091400-
NORTH CENTRAL MARYLAND

CITY           SKY/WX    TMP DP  RH WIND       PRES   REMARKS
FREDERICK*     CLEAR     28  18  64 NW12      30.32R WCI  18
HAGERSTOWN APT PTCLDY    28  15  58 W15       30.27R WCI  16
WESTMINSTER*     N/A     25  16  68 W15       30.22S WCI  12

$$

MDZ501>502-091400-
WESTERN MARYLAND

CITY           SKY/WX    TMP DP  RH WIND       PRES   REMARKS
OAKLAND*       CLOUDY    14  14 100 W14G23    30.18R FOG     WCI  -1
CUMBERLAND*    NOT AVBL

$$

VAZ025>031-091400-
SHENANDOAH VALLEY

CITY           SKY/WX    TMP DP  RH WIND       PRES   REMARKS
WINCHESTER*    CLEAR     27  14  59 W17G25    30.29R WCI  14
FRONT ROYAL*   FAIR      28  12  50 W3        30.29R
LURAY*         FAIR      28  18  64 SW7       30.30R
NEW MARKET*    FAIR      21  13  69 CALM      30.31R
STAUNTON*      PTCLDY    23  11  58 CALM      30.32S
WAYNESBORO*    PTSUNNY   23   8  53 CALM      30.29S

$$

WVZ021-048>050-054>055-091400-
EASTERN WEST VIRGINIA PANHANDLE

CITY           SKY/WX    TMP DP  RH WIND       PRES   REMARKS
MARTINSBURG    PTCLDY    28  14  55 W15G21    30.29R WCI  16
PETERSBURG*    PTCLDY    28  14  57 W3        30.33R

$$

VAZ036>039-050-091400-
CENTRAL FOOTHILLS

CITY           SKY/WX    TMP DP  RH WIND       PRES   REMARKS
CHARLOTTESVILL CLEAR     29  10  45 W5        30.32R
CULPEPER*      CLEAR     29  13  50 CALM      30.32R
ORANGE*          N/A     28  14  54 SW12      30.32F WCI  18
GORDONSVILLE*  FAIR      29  11  47 SW5       30.32R
WARRENTON*     FAIR      28  11  49 W3        30.30S

$$

VAZ055>057-091400-
NORTH AND CENTRAL PIEDMONT

CITY           SKY/WX    TMP DP  RH WIND       PRES   REMARKS
FREDERICKSBRG* CLEAR     31  15  51 W8        30.32R WCI  23
STAFFORD*      PTCLDY    27  13  56 W3        30.36R

$$

NCZ024-NYZ072-PAZ021-071-VAZ022-071-091400-
OTHER REGIONAL OBSERVATIONS

CITY           SKY/WX    TMP DP  RH WIND       PRES   REMARKS
NEW YORK CITY    N/A     34  19  55 MISG        N/A
PHILADELPHIA   CLEAR     31  17  56 W15       30.20R WCI  20
PITTSBURGH     CLOUDY    24  17  74 W9        30.31R WCI  14
ROANOKE        PTCLDY    25   9  50 NW9G20    30.38R WCI  15
RICHMOND       PTCLDY    30  16  56 NW9       30.32R WCI  22
RALEIGH        PTCLDY    30  16  56 CALM      30.36R

$$

ANZ530>537-091400-
MARINE OBSERVATIONS

STATION/POSITION TIME  TEMP    WIND        PRES
                       AIR SEA DIR/SP/G
                 (UTC) (F)     (DEG/KT/KT) (MB)
THOMAS PT LIGHT  1300   31 47  290/ 17/ 21   N/A
BALT KEY BRIDGE  1242   30     260/ 16/ 19 1024.6R
COVE POINT       1242   30     330/ 17/ 22 1025.8R
LEWISETTA        1242   32 45  290/  8/ 10 1025.4R
SOLOMONS ISLAND  1242   32 49  290/  7/ 11   N/A
PINEY POINT      1242          330/ 23/ 25   N/A

$$





USA.gov is the U.S. government's official web portal to all federal, state and local government web resources and services.